Year,Month,Day,Hour,Minute,Value (Times are PST for temperature in C)
2002,09,01,00,00,15.10
2002,09,01,00,01,15.10
2002,09,01,00,02,15.10
2002,09,01,00,03,15.20
2002,09,01,00,04,15.20
2002,09,01,00,05,15.20
2002,09,01,00,06,15.20
2002,09,01,00,07,15.20
2002,09,01,00,08,15.20
2002,09,01,00,09,15.30
2002,09,01,00,10,15.30
2002,09,01,00,11,15.30
2002,09,01,00,12,15.30
2002,09,01,00,13,15.30
2002,09,01,00,14,15.30
2002,09,01,00,15,15.30
2002,09,01,00,16,15.30
2002,09,01,00,17,15.30
2002,09,01,00,18,15.30
2002,09,01,00,19,15.30
2002,09,01,00,20,15.30
2002,09,01,00,21,15.30
2002,09,01,00,22,15.30
2002,09,01,00,23,15.30
2002,09,01,00,24,15.30
2002,09,01,00,25,15.30
2002,09,01,00,26,15.30
2002,09,01,00,27,15.30
2002,09,01,00,28,15.30
2002,09,01,00,29,15.30
2002,09,01,00,30,15.30
2002,09,01,00,31,15.30
2002,09,01,00,32,15.30
2002,09,01,00,33,15.30
2002,09,01,00,34,15.30
2002,09,01,00,35,15.30
2002,09,01,00,36,15.30
2002,09,01,00,37,15.30
2002,09,01,00,38,15.30
2002,09,01,00,39,15.30
2002,09,01,00,40,15.30
2002,09,01,00,41,15.30
2002,09,01,00,42,15.30
2002,09,01,00,43,15.30
2002,09,01,00,44,15.30
2002,09,01,00,45,15.30
2002,09,01,00,46,15.30
2002,09,01,00,47,15.30
2002,09,01,00,48,15.30
2002,09,01,00,49,15.30
2002,09,01,00,50,15.20
2002,09,01,00,51,15.20
2002,09,01,00,52,15.20
2002,09,01,00,53,15.20
2002,09,01,00,54,15.20
2002,09,01,00,55,15.10
2002,09,01,00,56,15.20
2002,09,01,00,57,15.20
2002,09,01,00,58,15.10
2002,09,01,00,59,15.10
2002,09,01,01,00,15.10
2002,09,01,01,01,15.10
2002,09,01,01,02,15.10
2002,09,01,01,03,15.10
2002,09,01,01,04,15.10
2002,09,01,01,05,15.10
2002,09,01,01,06,15.10
2002,09,01,01,07,15.10
2002,09,01,01,08,15.10
2002,09,01,01,09,15.10
2002,09,01,01,10,15.10
2002,09,01,01,11,15.10
2002,09,01,01,12,15.10
2002,09,01,01,13,15.10
2002,09,01,01,14,15.10
2002,09,01,01,15,15.10
2002,09,01,01,16,15.10
2002,09,01,01,17,15.10
2002,09,01,01,18,15.10
2002,09,01,01,19,15.10
2002,09,01,01,20,15.10
2002,09,01,01,21,15.10
2002,09,01,01,22,15.10
2002,09,01,01,23,15.10
2002,09,01,01,24,15.10
2002,09,01,01,25,15.10
2002,09,01,01,26,15.10
2002,09,01,01,27,15.10
2002,09,01,01,28,15.10
2002,09,01,01,29,15.10
2002,09,01,01,30,15.10
2002,09,01,01,31,15.10
2002,09,01,01,32,15.10
2002,09,01,01,33,15.10
2002,09,01,01,34,15.10
2002,09,01,01,35,15.10
2002,09,01,01,36,15.10
2002,09,01,01,37,15.10
2002,09,01,01,38,15.00
2002,09,01,01,39,15.00
2002,09,01,01,40,15.00
2002,09,01,01,41,15.00
2002,09,01,01,42,15.00
2002,09,01,01,43,15.00
2002,09,01,01,44,15.00
2002,09,01,01,45,15.00
2002,09,01,01,46,15.00
2002,09,01,01,47,15.00
2002,09,01,01,48,15.00
2002,09,01,01,49,15.00
2002,09,01,01,50,15.00
2002,09,01,01,51,15.00
2002,09,01,01,52,15.00
2002,09,01,01,53,15.00
2002,09,01,01,54,15.00
2002,09,01,01,55,15.00
2002,09,01,01,56,15.00
2002,09,01,01,57,15.00
2002,09,01,01,58,15.00
2002,09,01,01,59,15.00
2002,09,01,02,00,15.00
2002,09,01,02,01,15.00
2002,09,01,02,02,15.00
2002,09,01,02,03,15.00
2002,09,01,02,04,15.10
2002,09,01,02,05,15.10
2002,09,01,02,06,15.10
2002,09,01,02,07,15.10
2002,09,01,02,08,15.10
2002,09,01,02,09,15.10
2002,09,01,02,10,15.10
2002,09,01,02,11,15.10
2002,09,01,02,12,15.20
2002,09,01,02,13,15.10
2002,09,01,02,14,15.20
2002,09,01,02,15,15.20
2002,09,01,02,16,15.20
2002,09,01,02,17,15.10
2002,09,01,02,18,15.10
2002,09,01,02,19,15.10
2002,09,01,02,20,15.10
2002,09,01,02,21,15.10
2002,09,01,02,22,15.10
2002,09,01,02,23,15.10
2002,09,01,02,24,15.10
2002,09,01,02,25,15.10
2002,09,01,02,26,15.10
2002,09,01,02,27,15.10
2002,09,01,02,28,15.10
2002,09,01,02,29,15.10
2002,09,01,02,30,15.10
2002,09,01,02,31,15.00
2002,09,01,02,32,15.00
2002,09,01,02,33,15.00
2002,09,01,02,34,15.00
2002,09,01,02,35,15.10
2002,09,01,02,36,15.00
2002,09,01,02,37,15.00
2002,09,01,02,38,15.00
2002,09,01,02,39,15.00
2002,09,01,02,40,15.00
2002,09,01,02,41,15.00
2002,09,01,02,42,15.00
2002,09,01,02,43,15.00
2002,09,01,02,44,15.00
2002,09,01,02,45,15.00
2002,09,01,02,46,15.00
2002,09,01,02,47,15.00
2002,09,01,02,48,15.00
2002,09,01,02,49,15.00
2002,09,01,02,50,15.00
2002,09,01,02,51,15.00
2002,09,01,02,52,15.00
2002,09,01,02,53,15.00
2002,09,01,02,54,15.00
2002,09,01,02,55,15.00
2002,09,01,02,56,15.10
2002,09,01,02,57,15.10
2002,09,01,02,58,15.10
2002,09,01,02,59,15.10
2002,09,01,03,00,15.10
2002,09,01,03,01,15.10
2002,09,01,03,02,15.10
2002,09,01,03,03,15.10
2002,09,01,03,04,15.10
2002,09,01,03,05,15.10
2002,09,01,03,06,15.10
2002,09,01,03,07,15.10
2002,09,01,03,08,15.10
2002,09,01,03,09,15.10
2002,09,01,03,10,15.10
2002,09,01,03,11,15.10
2002,09,01,03,12,15.10
2002,09,01,03,13,15.10
2002,09,01,03,14,15.10
2002,09,01,03,15,15.10
2002,09,01,03,16,15.10
2002,09,01,03,17,15.10
2002,09,01,03,18,15.10
2002,09,01,03,19,15.10
2002,09,01,03,20,15.10
2002,09,01,03,21,15.10
2002,09,01,03,22,15.10
2002,09,01,03,23,15.10
2002,09,01,03,24,15.10
2002,09,01,03,25,15.10
2002,09,01,03,26,15.20
2002,09,01,03,27,15.20
2002,09,01,03,28,15.20
2002,09,01,03,29,15.20
2002,09,01,03,30,15.30
2002,09,01,03,31,15.30
2002,09,01,03,32,15.30
2002,09,01,03,33,15.30
2002,09,01,03,34,15.30
2002,09,01,03,35,15.30
2002,09,01,03,36,15.30
2002,09,01,03,37,15.30
2002,09,01,03,38,15.30
2002,09,01,03,39,15.30
2002,09,01,03,40,15.30
2002,09,01,03,41,15.30
2002,09,01,03,42,15.30
2002,09,01,03,43,15.30
2002,09,01,03,44,15.30
2002,09,01,03,45,15.30
2002,09,01,03,46,15.40
2002,09,01,03,47,15.40
2002,09,01,03,48,15.40
2002,09,01,03,49,15.40
2002,09,01,03,50,15.40
2002,09,01,03,51,15.40
2002,09,01,03,52,15.40
2002,09,01,03,53,15.40
2002,09,01,03,54,15.40
2002,09,01,03,55,15.40
2002,09,01,03,56,15.40
2002,09,01,03,57,15.50
2002,09,01,03,58,15.50
2002,09,01,03,59,15.50
2002,09,01,04,00,15.50
2002,09,01,04,01,15.50
2002,09,01,04,02,15.60
2002,09,01,04,03,15.60
2002,09,01,04,04,15.60
2002,09,01,04,05,15.60
2002,09,01,04,06,15.60
2002,09,01,04,07,15.60
2002,09,01,04,08,15.60
2002,09,01,04,09,15.60
2002,09,01,04,10,15.60
2002,09,01,04,11,15.60
2002,09,01,04,12,15.60
2002,09,01,04,13,15.60
2002,09,01,04,14,15.60
2002,09,01,04,15,15.60
2002,09,01,04,16,15.60
2002,09,01,04,17,15.60
2002,09,01,04,18,15.60
2002,09,01,04,19,15.60
2002,09,01,04,20,15.60
2002,09,01,04,21,15.60
2002,09,01,04,22,15.60
2002,09,01,04,23,15.70
2002,09,01,04,24,15.60
2002,09,01,04,25,15.60
2002,09,01,04,26,15.60
2002,09,01,04,27,15.60
2002,09,01,04,28,15.60
2002,09,01,04,29,15.70
2002,09,01,04,30,15.70
2002,09,01,04,31,15.70
2002,09,01,04,32,15.70
2002,09,01,04,33,15.70
2002,09,01,04,34,15.70
2002,09,01,04,35,15.70
2002,09,01,04,36,15.70
2002,09,01,04,37,15.70
2002,09,01,04,38,15.80
2002,09,01,04,39,15.80
2002,09,01,04,40,15.80
2002,09,01,04,41,15.80
2002,09,01,04,42,15.80
2002,09,01,04,43,15.80
2002,09,01,04,44,15.80
2002,09,01,04,45,15.80
2002,09,01,04,46,15.80
2002,09,01,04,47,15.80
2002,09,01,04,48,15.80
2002,09,01,04,49,15.80
2002,09,01,04,50,15.80
2002,09,01,04,51,15.80
2002,09,01,04,52,15.80
2002,09,01,04,53,15.80
2002,09,01,04,54,15.80
2002,09,01,04,55,15.80
2002,09,01,04,56,15.80
2002,09,01,04,57,15.80
2002,09,01,04,58,15.80
2002,09,01,04,59,15.80
2002,09,01,05,00,15.80
2002,09,01,05,01,15.80
2002,09,01,05,02,15.80
2002,09,01,05,03,15.80
2002,09,01,05,04,15.80
2002,09,01,05,05,15.80
2002,09,01,05,06,15.80
2002,09,01,05,07,15.80
2002,09,01,05,08,15.80
2002,09,01,05,09,15.80
2002,09,01,05,10,15.80
2002,09,01,05,11,15.80
2002,09,01,05,12,15.80
2002,09,01,05,13,15.90
2002,09,01,05,14,15.80
2002,09,01,05,15,15.80
2002,09,01,05,16,15.80
2002,09,01,05,17,15.80
2002,09,01,05,18,15.80
2002,09,01,05,19,15.80
2002,09,01,05,20,15.80
2002,09,01,05,21,15.80
2002,09,01,05,22,15.80
2002,09,01,05,23,15.80
2002,09,01,05,24,15.80
2002,09,01,05,25,15.80
2002,09,01,05,26,15.80
2002,09,01,05,27,15.80
2002,09,01,05,28,15.80
2002,09,01,05,29,15.70
2002,09,01,05,30,15.70
2002,09,01,05,31,15.70
2002,09,01,05,32,15.70
2002,09,01,05,33,15.70
2002,09,01,05,34,15.70
2002,09,01,05,35,15.70
2002,09,01,05,36,15.60
2002,09,01,05,37,15.60
2002,09,01,05,38,15.60
2002,09,01,05,39,15.60
2002,09,01,05,40,15.60
2002,09,01,05,41,15.50
2002,09,01,05,42,15.50
2002,09,01,05,43,15.50
2002,09,01,05,44,15.50
2002,09,01,05,45,15.50
2002,09,01,05,46,15.50
2002,09,01,05,47,15.50
2002,09,01,05,48,15.50
2002,09,01,05,49,15.50
2002,09,01,05,50,15.50
2002,09,01,05,51,15.50
2002,09,01,05,52,15.50
2002,09,01,05,53,15.50
2002,09,01,05,54,15.50
2002,09,01,05,55,15.50
2002,09,01,05,56,15.50
2002,09,01,05,57,15.50
2002,09,01,05,58,15.50
2002,09,01,05,59,15.50
2002,09,01,06,00,15.50
2002,09,01,06,01,15.50
2002,09,01,06,02,15.50
2002,09,01,06,03,15.50
2002,09,01,06,04,15.50
2002,09,01,06,05,15.50
2002,09,01,06,06,15.50
2002,09,01,06,07,15.50
2002,09,01,06,08,15.50
2002,09,01,06,09,15.50
2002,09,01,06,10,15.60
2002,09,01,06,11,15.60
2002,09,01,06,12,15.60
2002,09,01,06,13,15.60
2002,09,01,06,14,15.60
2002,09,01,06,15,15.70
2002,09,01,06,16,15.70
2002,09,01,06,17,15.70
2002,09,01,06,18,15.80
2002,09,01,06,19,15.80
2002,09,01,06,20,15.80
2002,09,01,06,21,15.80
2002,09,01,06,22,15.80
2002,09,01,06,23,15.80
2002,09,01,06,24,15.80
2002,09,01,06,25,15.80
2002,09,01,06,26,15.80
2002,09,01,06,27,15.80
2002,09,01,06,28,15.80
2002,09,01,06,29,15.80
2002,09,01,06,30,15.80
2002,09,01,06,31,15.80
2002,09,01,06,32,15.80
2002,09,01,06,33,15.80
2002,09,01,06,34,15.80
2002,09,01,06,35,15.80
2002,09,01,06,36,15.80
2002,09,01,06,37,15.80
2002,09,01,06,38,15.80
2002,09,01,06,39,15.80
2002,09,01,06,40,15.80
2002,09,01,06,41,15.80
2002,09,01,06,42,15.80
2002,09,01,06,43,15.80
2002,09,01,06,44,15.80
2002,09,01,06,45,15.80
2002,09,01,06,46,15.80
2002,09,01,06,47,15.80
2002,09,01,06,48,15.80
2002,09,01,06,49,15.80
2002,09,01,06,50,15.80
2002,09,01,06,51,15.80
2002,09,01,06,52,15.80
2002,09,01,06,53,15.80
2002,09,01,06,54,15.70
2002,09,01,06,55,15.70
2002,09,01,06,56,15.70
2002,09,01,06,57,15.70
2002,09,01,06,58,15.70
2002,09,01,06,59,15.70
2002,09,01,07,00,15.70
2002,09,01,07,01,15.70
2002,09,01,07,02,15.70
2002,09,01,07,03,15.70
2002,09,01,07,04,15.70
2002,09,01,07,05,15.70
2002,09,01,07,06,15.70
2002,09,01,07,07,15.70
2002,09,01,07,08,15.80
2002,09,01,07,09,15.80
2002,09,01,07,10,15.80
2002,09,01,07,11,15.80
2002,09,01,07,12,15.80
2002,09,01,07,13,15.80
2002,09,01,07,14,15.80
2002,09,01,07,15,15.80
2002,09,01,07,16,15.70
2002,09,01,07,17,15.80
2002,09,01,07,18,15.80
2002,09,01,07,19,15.80
2002,09,01,07,20,15.80
2002,09,01,07,21,15.80
2002,09,01,07,22,15.80
2002,09,01,07,23,15.80
2002,09,01,07,24,15.80
2002,09,01,07,25,15.80
2002,09,01,07,26,15.80
2002,09,01,07,27,15.80
2002,09,01,07,28,15.80
2002,09,01,07,29,15.80
2002,09,01,07,30,15.80
2002,09,01,07,31,15.80
2002,09,01,07,32,15.80
2002,09,01,07,33,15.80
2002,09,01,07,34,15.80
2002,09,01,07,35,15.80
2002,09,01,07,36,15.80
2002,09,01,07,37,15.80
2002,09,01,07,38,15.80
2002,09,01,07,39,15.90
2002,09,01,07,40,15.90
2002,09,01,07,41,15.90
2002,09,01,07,42,15.90
2002,09,01,07,43,16.00
2002,09,01,07,44,16.10
2002,09,01,07,45,16.10
2002,09,01,07,46,16.10
2002,09,01,07,47,16.10
2002,09,01,07,48,16.10
2002,09,01,07,49,16.00
2002,09,01,07,50,15.90
2002,09,01,07,51,15.90
2002,09,01,07,52,15.90
2002,09,01,07,53,15.90
2002,09,01,07,54,15.90
2002,09,01,07,55,15.90
2002,09,01,07,56,15.90
2002,09,01,07,57,15.90
2002,09,01,07,58,15.90
2002,09,01,07,59,15.90
2002,09,01,08,00,15.90
2002,09,01,08,01,15.90
2002,09,01,08,02,16.00
2002,09,01,08,03,16.10
2002,09,01,08,04,16.10
2002,09,01,08,05,16.10
2002,09,01,08,06,16.10
2002,09,01,08,07,16.10
2002,09,01,08,08,16.10
2002,09,01,08,09,16.10
2002,09,01,08,10,16.20
2002,09,01,08,11,16.20
2002,09,01,08,12,16.20
2002,09,01,08,13,16.30
2002,09,01,08,14,16.30
2002,09,01,08,15,16.30
2002,09,01,08,16,16.30
2002,09,01,08,17,16.30
2002,09,01,08,18,16.40
2002,09,01,08,19,16.40
2002,09,01,08,20,16.40
2002,09,01,08,21,16.40
2002,09,01,08,22,16.40
2002,09,01,08,23,16.40
2002,09,01,08,24,16.40
2002,09,01,08,25,16.40
2002,09,01,08,26,16.40
2002,09,01,08,27,16.40
2002,09,01,08,28,16.40
2002,09,01,08,29,16.40
2002,09,01,08,30,16.40
2002,09,01,08,31,16.40
2002,09,01,08,32,16.40
2002,09,01,08,33,16.40
2002,09,01,08,34,16.40
2002,09,01,08,35,16.40
2002,09,01,08,36,16.40
2002,09,01,08,37,16.50
2002,09,01,08,38,16.50
2002,09,01,08,39,16.50
2002,09,01,08,40,16.50
2002,09,01,08,41,16.50
2002,09,01,08,42,16.50
2002,09,01,08,43,16.60
2002,09,01,08,44,16.60
2002,09,01,08,45,16.70
2002,09,01,08,46,16.70
2002,09,01,08,47,16.70
2002,09,01,08,48,16.70
2002,09,01,08,49,16.80
2002,09,01,08,50,16.90
2002,09,01,08,51,16.90
2002,09,01,08,52,17.00
2002,09,01,08,53,17.00
2002,09,01,08,54,17.00
2002,09,01,08,55,17.10
2002,09,01,08,56,17.20
2002,09,01,08,57,17.20
2002,09,01,08,58,17.20
2002,09,01,08,59,17.20
2002,09,01,09,00,17.20
2002,09,01,09,01,17.30
2002,09,01,09,02,17.30
2002,09,01,09,03,17.30
2002,09,01,09,04,17.30
2002,09,01,09,05,17.30
2002,09,01,09,06,17.30
2002,09,01,09,07,17.30
2002,09,01,09,08,17.30
2002,09,01,09,09,17.30
2002,09,01,09,10,17.30
2002,09,01,09,11,17.30
2002,09,01,09,12,17.30
2002,09,01,09,13,17.30
2002,09,01,09,14,17.30
2002,09,01,09,15,17.30
2002,09,01,09,16,17.30
2002,09,01,09,17,17.30
2002,09,01,09,18,17.30
2002,09,01,09,19,17.40
2002,09,01,09,20,17.30
2002,09,01,09,21,17.30
2002,09,01,09,22,17.30
2002,09,01,09,23,17.30
2002,09,01,09,24,17.30
2002,09,01,09,25,17.30
2002,09,01,09,26,17.30
2002,09,01,09,27,17.30
2002,09,01,09,28,17.30
2002,09,01,09,29,17.30
2002,09,01,09,30,17.30
2002,09,01,09,31,17.30
2002,09,01,09,32,17.30
2002,09,01,09,33,17.30
2002,09,01,09,34,17.30
2002,09,01,09,35,17.30
2002,09,01,09,36,17.30
2002,09,01,09,37,17.30
2002,09,01,09,38,17.30
2002,09,01,09,39,17.30
2002,09,01,09,40,17.20
2002,09,01,09,41,17.20
2002,09,01,09,42,17.10
2002,09,01,09,43,17.10
2002,09,01,09,44,17.10
2002,09,01,09,45,17.10
2002,09,01,09,46,17.10
2002,09,01,09,47,17.10
2002,09,01,09,48,17.10
2002,09,01,09,49,17.10
2002,09,01,09,50,17.10
2002,09,01,09,51,17.10
2002,09,01,09,52,17.20
2002,09,01,09,53,17.10
2002,09,01,09,54,17.10
2002,09,01,09,55,17.10
2002,09,01,09,56,17.10
2002,09,01,09,57,17.20
2002,09,01,09,58,17.10
2002,09,01,09,59,17.10
2002,09,01,10,00,17.00
2002,09,01,10,01,17.00
2002,09,01,10,02,17.00
2002,09,01,10,03,17.00
2002,09,01,10,04,17.10
2002,09,01,10,05,17.10
2002,09,01,10,06,17.00
2002,09,01,10,07,17.00
2002,09,01,10,08,17.00
2002,09,01,10,09,17.10
2002,09,01,10,10,17.10
2002,09,01,10,11,17.00
2002,09,01,10,12,17.00
2002,09,01,10,13,17.00
2002,09,01,10,14,17.00
2002,09,01,10,15,17.00
2002,09,01,10,16,17.10
2002,09,01,10,17,17.10
2002,09,01,10,18,17.10
2002,09,01,10,19,17.10
2002,09,01,10,20,17.30
2002,09,01,10,21,17.30
2002,09,01,10,22,17.30
2002,09,01,10,23,17.40
2002,09,01,10,24,17.40
2002,09,01,10,25,17.40
2002,09,01,10,26,17.40
2002,09,01,10,27,17.50
2002,09,01,10,28,17.50
2002,09,01,10,29,17.60
2002,09,01,10,30,17.70
2002,09,01,10,31,17.80
2002,09,01,10,32,17.90
2002,09,01,10,33,18.00
2002,09,01,10,34,18.10
2002,09,01,10,35,18.20
2002,09,01,10,36,18.40
2002,09,01,10,37,18.40
2002,09,01,10,38,18.50
2002,09,01,10,39,18.60
2002,09,01,10,40,18.80
2002,09,01,10,41,19.00
2002,09,01,10,42,19.20
2002,09,01,10,43,19.30
2002,09,01,10,44,19.40
2002,09,01,10,45,19.50
2002,09,01,10,46,19.50
2002,09,01,10,47,19.50
2002,09,01,10,48,19.60
2002,09,01,10,49,19.60
2002,09,01,10,50,19.70
2002,09,01,10,51,19.70
2002,09,01,10,52,19.80
2002,09,01,10,53,20.00
2002,09,01,10,54,20.10
2002,09,01,10,55,20.10
2002,09,01,10,56,20.20
2002,09,01,10,57,20.20
2002,09,01,10,58,20.20
2002,09,01,10,59,20.20
2002,09,01,11,00,20.10
2002,09,01,11,01,20.00
2002,09,01,11,02,19.90
2002,09,01,11,03,20.00
2002,09,01,11,04,20.10
2002,09,01,11,05,20.20
2002,09,01,11,06,20.30
2002,09,01,11,07,20.40
2002,09,01,11,08,20.50
2002,09,01,11,09,20.50
2002,09,01,11,10,20.50
2002,09,01,11,11,20.40
2002,09,01,11,12,20.40
2002,09,01,11,13,20.40
2002,09,01,11,14,20.30
2002,09,01,11,15,20.30
2002,09,01,11,16,20.40
2002,09,01,11,17,20.30
2002,09,01,11,18,20.30
2002,09,01,11,19,20.40
2002,09,01,11,20,20.50
2002,09,01,11,21,20.60
2002,09,01,11,22,20.70
2002,09,01,11,23,20.90
2002,09,01,11,24,20.90
2002,09,01,11,25,20.80
2002,09,01,11,26,20.60
2002,09,01,11,27,20.70
2002,09,01,11,28,20.70
2002,09,01,11,29,20.80
2002,09,01,11,30,20.70
2002,09,01,11,31,20.70
2002,09,01,11,32,20.60
2002,09,01,11,33,20.60
2002,09,01,11,34,20.60
2002,09,01,11,35,20.50
2002,09,01,11,36,20.60
2002,09,01,11,37,20.70
2002,09,01,11,38,20.80
2002,09,01,11,39,20.90
2002,09,01,11,40,20.90
2002,09,01,11,41,20.90
2002,09,01,11,42,20.70
2002,09,01,11,43,20.60
2002,09,01,11,44,20.60
2002,09,01,11,45,20.60
2002,09,01,11,46,20.60
2002,09,01,11,47,20.60
2002,09,01,11,48,20.60
2002,09,01,11,49,20.80
2002,09,01,11,50,21.00
2002,09,01,11,51,21.00
2002,09,01,11,52,21.10
2002,09,01,11,53,21.20
2002,09,01,11,54,21.20
2002,09,01,11,55,21.30
2002,09,01,11,56,21.40
2002,09,01,11,57,21.50
2002,09,01,11,58,21.40
2002,09,01,11,59,21.20
2002,09,01,12,00,21.30
2002,09,01,12,01,21.30
2002,09,01,12,02,21.40
2002,09,01,12,03,21.50
2002,09,01,12,04,21.50
2002,09,01,12,05,21.70
2002,09,01,12,06,21.90
2002,09,01,12,07,21.90
2002,09,01,12,08,21.70
2002,09,01,12,09,21.60
2002,09,01,12,10,21.70
2002,09,01,12,11,21.70
2002,09,01,12,12,21.50
2002,09,01,12,13,21.30
2002,09,01,12,14,21.40
2002,09,01,12,15,21.60
2002,09,01,12,16,21.80
2002,09,01,12,17,22.00
2002,09,01,12,18,22.10
2002,09,01,12,19,22.00
2002,09,01,12,20,21.90
2002,09,01,12,21,21.80
2002,09,01,12,22,21.80
2002,09,01,12,23,21.70
2002,09,01,12,24,21.60
2002,09,01,12,25,21.60
2002,09,01,12,26,21.70
2002,09,01,12,27,21.90
2002,09,01,12,28,21.90
2002,09,01,12,29,22.00
2002,09,01,12,30,22.10
2002,09,01,12,31,22.20
2002,09,01,12,32,22.20
2002,09,01,12,33,22.30
2002,09,01,12,34,22.40
2002,09,01,12,35,22.50
2002,09,01,12,36,22.40
2002,09,01,12,37,22.40
2002,09,01,12,38,22.30
2002,09,01,12,39,22.30
2002,09,01,12,40,22.20
2002,09,01,12,41,22.30
2002,09,01,12,42,22.40
2002,09,01,12,43,22.50
2002,09,01,12,44,22.60
2002,09,01,12,45,22.60
2002,09,01,12,46,22.70
2002,09,01,12,47,22.70
2002,09,01,12,48,22.70
2002,09,01,12,49,22.80
2002,09,01,12,50,22.90
2002,09,01,12,51,22.80
2002,09,01,12,52,22.90
2002,09,01,12,53,22.60
2002,09,01,12,54,22.70
2002,09,01,12,55,22.60
2002,09,01,12,56,22.50
2002,09,01,12,57,22.30
2002,09,01,12,58,22.40
2002,09,01,12,59,22.60
2002,09,01,13,00,22.60
2002,09,01,13,01,22.60
2002,09,01,13,02,22.30
2002,09,01,13,03,22.20
2002,09,01,13,04,21.80
2002,09,01,13,05,21.70
2002,09,01,13,06,21.50
2002,09,01,13,07,21.20
2002,09,01,13,08,21.20
2002,09,01,13,09,21.30
2002,09,01,13,10,21.30
2002,09,01,13,11,21.30
2002,09,01,13,12,21.30
2002,09,01,13,13,21.30
2002,09,01,13,14,21.30
2002,09,01,13,15,21.40
2002,09,01,13,16,21.40
2002,09,01,13,17,21.40
2002,09,01,13,18,21.60
2002,09,01,13,19,21.60
2002,09,01,13,20,21.60
2002,09,01,13,21,21.70
2002,09,01,13,22,22.00
2002,09,01,13,23,22.20
2002,09,01,13,24,22.30
2002,09,01,13,25,22.30
2002,09,01,13,26,22.50
2002,09,01,13,27,22.40
2002,09,01,13,28,22.50
2002,09,01,13,29,22.50
2002,09,01,13,30,22.60
2002,09,01,13,31,22.80
2002,09,01,13,32,23.00
2002,09,01,13,33,23.20
2002,09,01,13,34,23.30
2002,09,01,13,35,23.30
2002,09,01,13,36,23.40
2002,09,01,13,37,23.50
2002,09,01,13,38,23.50
2002,09,01,13,39,23.60
2002,09,01,13,40,23.50
2002,09,01,13,41,23.30
2002,09,01,13,42,23.20
2002,09,01,13,43,23.20
2002,09,01,13,44,23.10
2002,09,01,13,45,23.20
2002,09,01,13,46,23.00
2002,09,01,13,47,23.00
2002,09,01,13,48,23.10
2002,09,01,13,49,23.10
2002,09,01,13,50,23.20
2002,09,01,13,51,23.30
2002,09,01,13,52,23.30
2002,09,01,13,53,23.40
2002,09,01,13,54,23.40
2002,09,01,13,55,23.30
2002,09,01,13,56,23.40
2002,09,01,13,57,23.10
2002,09,01,13,58,23.30
2002,09,01,13,59,23.20
2002,09,01,14,00,23.00
2002,09,01,14,01,23.00
2002,09,01,14,02,22.90
2002,09,01,14,03,22.90
2002,09,01,14,04,23.00
2002,09,01,14,05,23.00
2002,09,01,14,06,22.90
2002,09,01,14,07,22.70
2002,09,01,14,08,22.80
2002,09,01,14,09,22.90
2002,09,01,14,10,22.70
2002,09,01,14,11,22.70
2002,09,01,14,12,22.80
2002,09,01,14,13,22.80
2002,09,01,14,14,22.90
2002,09,01,14,15,22.90
2002,09,01,14,16,23.00
2002,09,01,14,17,22.90
2002,09,01,14,18,22.90
2002,09,01,14,19,22.80
2002,09,01,14,20,23.00
2002,09,01,14,21,23.00
2002,09,01,14,22,23.00
2002,09,01,14,23,23.20
2002,09,01,14,24,23.00
2002,09,01,14,25,23.00
2002,09,01,14,26,22.90
2002,09,01,14,27,22.80
2002,09,01,14,28,22.80
2002,09,01,14,29,22.70
2002,09,01,14,30,22.60
2002,09,01,14,31,22.70
2002,09,01,14,32,22.80
2002,09,01,14,33,22.90
2002,09,01,14,34,22.90
2002,09,01,14,35,22.90
2002,09,01,14,36,22.90
2002,09,01,14,37,23.00
2002,09,01,14,38,23.10
2002,09,01,14,39,23.30
2002,09,01,14,40,23.20
2002,09,01,14,41,23.30
2002,09,01,14,42,23.40
2002,09,01,14,43,23.40
2002,09,01,14,44,23.30
2002,09,01,14,45,23.30
2002,09,01,14,46,23.20
2002,09,01,14,47,23.10
2002,09,01,14,48,23.00
2002,09,01,14,49,22.90
2002,09,01,14,50,23.00
2002,09,01,14,51,22.90
2002,09,01,14,52,22.90
2002,09,01,14,53,22.80
2002,09,01,14,54,22.70
2002,09,01,14,55,22.70
2002,09,01,14,56,22.70
2002,09,01,14,57,22.60
2002,09,01,14,58,22.60
2002,09,01,14,59,22.60
2002,09,01,15,00,22.60
2002,09,01,15,01,22.70
2002,09,01,15,02,22.70
2002,09,01,15,03,22.80
2002,09,01,15,04,22.80
2002,09,01,15,05,22.90
2002,09,01,15,06,22.90
2002,09,01,15,07,23.00
2002,09,01,15,08,23.10
2002,09,01,15,09,23.30
2002,09,01,15,10,23.20
2002,09,01,15,11,23.30
2002,09,01,15,12,23.20
2002,09,01,15,13,23.30
2002,09,01,15,14,23.10
2002,09,01,15,15,23.00
2002,09,01,15,16,23.10
2002,09,01,15,17,23.30
2002,09,01,15,18,23.20
2002,09,01,15,19,23.30
2002,09,01,15,20,23.30
2002,09,01,15,21,23.20
2002,09,01,15,22,23.00
2002,09,01,15,23,23.10
2002,09,01,15,24,23.10
2002,09,01,15,25,23.10
2002,09,01,15,26,23.00
2002,09,01,15,27,23.00
2002,09,01,15,28,23.10
2002,09,01,15,29,23.30
2002,09,01,15,30,23.20
2002,09,01,15,31,23.20
2002,09,01,15,32,22.90
2002,09,01,15,33,22.70
2002,09,01,15,34,22.80
2002,09,01,15,35,22.90
2002,09,01,15,36,22.90
2002,09,01,15,37,22.90
2002,09,01,15,38,23.00
2002,09,01,15,39,23.00
2002,09,01,15,40,23.00
2002,09,01,15,41,22.90
2002,09,01,15,42,22.90
2002,09,01,15,43,22.90
2002,09,01,15,44,22.90
2002,09,01,15,45,23.00
2002,09,01,15,46,23.20
2002,09,01,15,47,23.20
2002,09,01,15,48,23.00
2002,09,01,15,49,22.90
2002,09,01,15,50,22.90
2002,09,01,15,51,22.90
2002,09,01,15,52,23.00
2002,09,01,15,53,23.10
2002,09,01,15,54,23.10
2002,09,01,15,55,23.10
2002,09,01,15,56,23.20
2002,09,01,15,57,23.30
2002,09,01,15,58,23.20
2002,09,01,15,59,23.10
2002,09,01,16,00,23.20
2002,09,01,16,01,23.20
2002,09,01,16,02,23.30
2002,09,01,16,03,23.20
2002,09,01,16,04,23.30
2002,09,01,16,05,23.40
2002,09,01,16,06,23.40
2002,09,01,16,07,23.50
2002,09,01,16,08,23.50
2002,09,01,16,09,23.70
2002,09,01,16,10,23.80
2002,09,01,16,11,23.90
2002,09,01,16,12,23.90
2002,09,01,16,13,23.90
2002,09,01,16,14,24.00
2002,09,01,16,15,23.80
2002,09,01,16,16,23.70
2002,09,01,16,17,23.50
2002,09,01,16,18,23.50
2002,09,01,16,19,23.30
2002,09,01,16,20,23.30
2002,09,01,16,21,23.30
2002,09,01,16,22,23.20
2002,09,01,16,23,23.10
2002,09,01,16,24,23.10
2002,09,01,16,25,23.10
2002,09,01,16,26,23.10
2002,09,01,16,27,23.10
2002,09,01,16,28,23.10
2002,09,01,16,29,23.30
2002,09,01,16,30,23.30
2002,09,01,16,31,23.20
2002,09,01,16,32,23.10
2002,09,01,16,33,23.00
2002,09,01,16,34,23.00
2002,09,01,16,35,23.00
2002,09,01,16,36,23.10
2002,09,01,16,37,23.10
2002,09,01,16,38,23.30
2002,09,01,16,39,23.30
2002,09,01,16,40,23.40
2002,09,01,16,41,23.40
2002,09,01,16,42,23.30
2002,09,01,16,43,23.10
2002,09,01,16,44,23.00
2002,09,01,16,45,22.80
2002,09,01,16,46,22.70
2002,09,01,16,47,22.60
2002,09,01,16,48,22.50
2002,09,01,16,49,22.50
2002,09,01,16,50,22.50
2002,09,01,16,51,22.50
2002,09,01,16,52,22.40
2002,09,01,16,53,22.50
2002,09,01,16,54,22.60
2002,09,01,16,55,22.50
2002,09,01,16,56,22.50
2002,09,01,16,57,22.40
2002,09,01,16,58,22.50
2002,09,01,16,59,22.50
2002,09,01,17,00,22.60
2002,09,01,17,01,22.50
2002,09,01,17,02,22.50
2002,09,01,17,03,22.50
2002,09,01,17,04,22.50
2002,09,01,17,05,22.30
2002,09,01,17,06,22.30
2002,09,01,17,07,22.30
2002,09,01,17,08,22.30
2002,09,01,17,09,22.30
2002,09,01,17,10,22.30
2002,09,01,17,11,22.20
2002,09,01,17,12,22.20
2002,09,01,17,13,22.10
2002,09,01,17,14,22.10
2002,09,01,17,15,22.10
2002,09,01,17,16,22.20
2002,09,01,17,17,22.20
2002,09,01,17,18,22.30
2002,09,01,17,19,22.40